Date String (YYYY-MM-DD hh:mm:ss) UTC,Instrument flags,Ambient pressure (hPa),Sample flow (lpm),Bypass flow (lpm),Sample temperature (°C),Ambient temperature (°C),ASC tube jacket temperature (°C),LED temperature (°C),Box temperature (°C),Sample RH (%),Span deviation,Mass concentration (μg/m³),Mass concentration (μg/m³),Mass concentration (μg/m³)
DateTimeUTC,F1_M11,P_M11,Q1_M11,Q2_M11,T1_M11,T2_M11,T3_M11,T4_M11,T5_M11,U1_M11,ZSPAN_M11,X0_M11,X2_M11,X1_M11
2023-01-23 17:00:00,,0828.3,5.00,0.00,22.1,20.5,00.0,30.9,23.8,15.2,0000.0,0013.64,0010.27,0009.98
2023-01-23 17:01:00,,0828.3,5.00,0.00,22.1,21.6,00.0,30.8,24.0,15.1,0000.0,0013.77,0010.36,0010.03
2023-01-23 17:02:00,,0828.2,5.00,0.00,22.3,22.7,00.0,30.9,24.3,15.0,-000.8,0013.91,0010.48,0010.15
2023-01-23 17:03:00,,0828.2,5.00,0.00,22.3,22.5,00.0,30.9,24.3,14.9,-000.5,0014.05,0010.59,0010.27
2023-01-23 17:04:00,,0828.2,5.01,0.00,22.4,22.1,00.0,31.0,24.3,14.9,-000.5,0014.14,0010.65,0010.34
2023-01-23 17:05:00,,0828.2,5.00,0.00,22.4,21.8,00.0,31.0,24.3,14.9,-000.3,0014.15,0010.68,0010.37
2023-01-23 17:06:00,,0828.2,5.00,0.00,22.4,21.5,00.0,31.0,24.2,14.9,-000.0,0014.12,0010.68,0010.37
2023-01-23 17:07:00,,0828.2,5.00,0.00,22.4,21.4,00.0,31.0,24.2,14.9,0000.2,0014.12,0010.67,0010.37
2023-01-23 17:08:00,,0828.2,4.99,0.00,22.4,21.2,00.0,31.0,24.2,14.8,0000.3,0014.10,0010.68,0010.39
2023-01-23 17:09:00,,0828.2,5.02,0.00,22.4,21.1,00.0,31.1,24.2,14.8,0000.2,0014.13,0010.72,0010.40
2023-01-23 17:10:00,,0828.2,5.00,0.00,22.4,21.0,00.0,31.1,24.2,14.8,0000.0,0014.11,0010.74,0010.43
2023-01-23 17:11:00,,0828.2,5.01,0.00,22.4,21.0,00.0,31.1,24.2,14.9,-000.1,0014.16,0010.78,0010.48
2023-01-23 17:12:00,,0828.1,4.99,0.00,22.4,21.0,00.0,31.1,24.2,14.9,-000.5,0014.18,0010.81,0010.52
2023-01-23 17:13:00,,0828.1,5.01,0.00,22.4,21.0,00.0,31.1,24.2,14.8,-001.1,0014.17,0010.80,0010.51
2023-01-23 17:14:00,,0828.1,5.00,0.00,22.4,21.0,00.0,31.1,24.2,14.9,-001.4,0015.97,0010.83,0010.48
2023-01-23 17:15:00,,0828.1,5.00,0.00,22.4,21.0,00.0,31.1,24.1,14.9,-001.5,0016.90,0010.90,0010.50
2023-01-23 17:16:00,,0828.1,5.01,0.00,22.4,21.0,00.0,31.1,24.2,15.0,-001.5,0017.00,0010.95,0010.57
2023-01-23 17:17:00,,0828.1,4.99,0.00,22.4,21.0,00.0,31.1,24.2,14.9,-001.3,0017.47,0011.04,0010.65
2023-01-23 17:18:00,,0828.1,5.00,0.00,22.4,21.0,00.0,31.1,24.1,14.9,-002.0,0018.03,0011.19,0010.76
2023-01-23 17:19:00,,0828.1,5.00,0.00,22.4,21.0,00.0,31.1,24.1,15.0,-002.0,0018.16,0011.27,0010.85
2023-01-23 17:20:00,,0828.1,4.99,0.00,22.4,21.0,00.0,31.1,24.1,15.0,-001.6,0018.39,0011.38,0010.95
2023-01-23 17:21:00,,0828.1,4.99,0.00,22.4,21.0,00.0,31.1,24.1,15.0,-001.6,0018.74,0011.46,0011.01
2023-01-23 17:22:00,,0828.1,4.99,0.00,22.4,20.9,00.0,31.1,24.1,15.0,-001.8,0018.82,0011.53,0011.08
2023-01-23 17:23:00,,0828.1,5.01,0.00,22.4,20.9,00.0,31.1,24.1,15.1,-001.6,0018.93,0011.63,0011.19
2023-01-23 17:24:00,,0828.1,5.01,0.00,22.3,20.9,00.0,31.1,24.1,15.1,-001.6,0019.10,0011.74,0011.29
2023-01-23 17:25:00,,0828.1,4.99,0.00,22.3,20.8,00.0,31.1,24.1,15.1,-001.8,0017.68,0011.78,0011.37
2023-01-23 17:26:00,,0828.1,5.00,0.00,22.3,20.8,00.0,31.1,24.1,15.0,-001.8,0016.51,0011.77,0011.41
2023-01-23 17:27:00,,0828.1,5.00,0.00,22.3,20.7,00.0,31.1,24.1,14.9,-001.5,0016.39,0011.72,0011.35
2023-01-23 17:28:00,,0828.1,5.00,0.00,22.3,20.7,00.0,31.1,24.1,14.9,-001.0,0015.96,0011.62,0011.24
2023-01-23 17:29:00,,0828.1,5.00,0.00,22.3,20.7,00.0,31.1,24.1,14.8,-000.8,0015.25,0011.41,0011.05
2023-01-23 17:30:00,,0828.1,4.99,0.00,22.3,20.7,00.0,31.1,24.0,14.8,-001.0,0015.01,0011.22,0010.87
2023-01-23 17:31:00,,0828.0,4.98,0.00,22.3,20.7,00.0,31.1,24.0,14.9,-001.2,0014.66,0011.04,0010.71
2023-01-23 17:32:00,,0828.0,5.00,0.00,22.3,20.7,00.0,31.1,24.1,14.8,-001.3,0014.20,0010.83,0010.52
2023-01-23 17:33:00,,0828.0,5.01,0.00,22.3,20.7,00.0,31.1,24.1,14.7,-000.8,0013.78,0010.52,0010.23
2023-01-23 17:34:00,,0828.0,5.00,0.00,22.3,20.7,00.0,31.1,24.1,14.7,-000.8,0013.41,0010.19,0009.88
2023-01-23 17:35:00,,0827.9,5.01,0.00,22.3,20.7,00.0,31.1,24.0,14.7,-000.4,0013.03,0009.88,0009.58
2023-01-23 17:36:00,,0828.0,5.00,0.00,22.3,20.7,00.0,31.0,24.0,14.6,0000.1,0012.76,0009.59,0009.28
2023-01-23 17:37:00,,0828.0,5.01,0.00,22.2,20.6,00.0,31.0,24.0,14.7,0000.0,0012.52,0009.36,0009.06
2023-01-23 17:38:00,,0827.9,5.01,0.00,22.2,20.6,00.0,31.0,24.0,14.7,-000.3,0012.44,0009.26,0008.94
2023-01-23 17:39:00,,0827.9,5.01,0.00,22.2,20.6,00.0,31.0,24.0,14.8,-000.6,0012.36,0009.20,0008.89
2023-01-23 17:40:00,,0827.9,5.00,0.00,22.2,20.6,00.0,31.0,24.0,14.9,-000.3,0012.37,0009.22,0008.91
2023-01-23 17:41:00,,0827.9,5.00,0.00,22.2,20.6,00.0,31.0,24.0,15.0,0000.1,0012.47,0009.25,0008.92
2023-01-23 17:42:00,,0827.8,5.00,0.00,22.2,20.5,00.0,31.0,23.9,15.0,-000.0,0012.49,0009.25,0008.93
2023-01-23 17:43:00,,0828.0,4.99,0.00,22.2,20.6,00.0,31.0,24.0,15.1,0000.4,0012.58,0009.31,0008.99
2023-01-23 17:44:00,,0827.8,4.99,0.00,22.2,20.7,00.0,31.0,24.0,15.0,0000.4,0013.08,0009.45,0009.13
2023-01-23 17:45:00,,0827.9,5.00,0.00,22.2,20.8,00.0,31.0,24.0,15.1,0000.5,0013.59,0009.64,0009.32
2023-01-23 17:46:00,,0827.9,5.01,0.00,22.2,20.9,00.0,31.0,24.1,15.1,-000.6,0014.54,0009.88,0009.53
2023-01-23 17:47:00,,0827.8,5.00,0.00,22.2,20.9,00.0,31.0,24.1,15.1,-001.5,0015.10,0010.11,0009.75
2023-01-23 17:48:00,,0827.9,5.00,0.00,22.2,20.9,00.0,31.0,24.1,15.0,-001.4,0015.15,0010.22,0009.85
2023-01-23 17:49:00,,0827.9,5.00,0.00,22.3,20.9,00.0,31.0,24.1,14.9,-001.0,0015.22,0010.27,0009.90
2023-01-23 17:50:00,,0827.9,4.99,0.00,22.3,20.9,00.0,31.0,24.1,15.0,-000.6,0015.37,0010.36,0010.00
2023-01-23 17:51:00,,0827.9,5.00,0.00,22.3,21.0,00.0,31.0,24.1,15.0,-000.8,0015.48,0010.44,0010.08
2023-01-23 17:52:00,,0827.9,5.01,0.00,22.3,21.0,00.0,31.0,24.1,14.9,-001.1,0015.56,0010.43,0010.08
2023-01-23 17:53:00,,0827.9,4.98,0.00,22.3,21.0,00.0,31.0,24.1,14.9,-001.0,0015.75,0010.43,0010.07
2023-01-23 17:54:00,,0827.9,4.99,0.00,22.3,21.0,00.0,31.0,24.1,14.8,-000.9,0015.58,0010.29,0009.92
2023-01-23 17:55:00,,0827.9,5.01,0.00,22.3,21.0,00.0,31.0,24.1,14.8,-000.6,0015.13,0010.19,0009.80
2023-01-23 17:56:00,,0827.8,5.01,0.00,22.3,21.1,00.0,31.0,24.1,14.9,-000.4,0014.71,0010.10,0009.72
2023-01-23 17:57:00,,0827.7,4.99,0.00,22.3,21.1,00.0,31.0,24.1,14.9,0000.1,0013.88,0009.96,0009.62
2023-01-23 17:58:00,,0827.7,5.01,0.00,22.3,21.0,00.0,31.0,24.1,14.9,0000.2,0013.29,0009.80,0009.47
2023-01-23 17:59:00,,0827.7,5.00,0.00,22.3,21.1,00.0,31.0,24.1,14.9,0000.3,0013.58,0009.73,0009.40
